EHI
0 0 0 0 0 0 0 0 0 0 0 0 0 0 0 0 0 0 0 0 0 0 0 0 0 0 0 0 0 0 0 0 0 0 0 0 0 0
0 0 0 0 0 0 0 0 0 0 0 0 0 0 0 0 0 0 0 0 0 0 0 0 0 0 0 0 0 0 0 0 0 0 0 0 0 0
0 0 0 0 0 0 0 0 0 0 0 0 0 0 0 0 0 0 0 0 0 0 0 0 0 0 0 0 0 0 0 0 0 0 0 0 0 0
0 0 0 0 0 0 0 0 0 0 0 0 0 0 0 0 0 0 0 0 0 0 0 0 0 0 0 0 0 0 0 0 0 0 0 0 0 0
0 0 0 0 0 0 0 0 0 0 0 0 0 0 0 0 0 0 0 0 0 0 0 0 0 0 0 0 0 0 0 0 0 0 0 0 0 0
0 0 0 0 0 0 0 0 0 0 0 0 0 0 0 0 0 0 0 0 0 0 0 0 0 0 0 0 0 0 0 0 0 0 0 0 0 0
0 0 0 0 0 0 0 0 0 0 0 0 0 0 0 0 0 0 0 0 0 0 0 0 0 0 0 0 0 0 0 0 0 0 0 0 0 0
0 0 0 0 0 0 0 0 0 0 0 0 0 0 0 0 0 0 0 0 0 0 0 0 0 0 0 0 0 0 0 0 0 0 0 0 0 0
0 0 0 0 0 0 0 0 0 0 0 0 0 0 0 0 0 0 0 0 0 0 0 0 0 0 0 0 0 0 0 0 0 0 0 0 0 0
0 0 0 0 0 0 0 0 0 0 0 0 0 0 0 0 0 0 0 0 0 0 0 0 0 0 0 0 0 0 0 0 0 0 0 0 0 0
0 0 0 0 0 0 0 0 0 0 0 0 0 0 0 0 0 0 0 0 0 0 0 0 0 0 0 0 0 0 0 0 0 0 0 0 0 0
0 0 0 0 0 0 0 0 0 0 0 0 0 0 0 0 0 0 0 0 0 0 0 0 0 0 0 0 0 0 0 0 0 0 0 0 0 0
0 0 0 0 0 0 0 0 0 0 0 0 0 0 0 0 0 0 0 0 0 0 0 0 0 0 0 0 0 0 0 0 0 0 0 0 0 0
0 0 0 0 0 0 0 0 0 0 0 0 0 0 0 0 0 0 0 0 0 0 0 0 0 0 0 0 0 0 0 0 0 0 0 0 0 0
0 0 0 0 0 0 0 0 0 0 0 0 0 0 0 0 0 0 0 0 0 0 0 0 0 0 0 0 0 0 0 0 0 0 0 0 0 0
0 0 0 0 0 0 0 0 0 0 0 0 0 0 0 0 0 0 0 0 0 0 0 0 0 0 0 0 0 0 0 0 0 0 0 0 0 0
0 0 0 0 0 0 0 0 0 0 0 0 0 0 0 0 0 0 0 0 0 0 0 0 0 0 0 0 0 0 0 0 0 0 0 0 0 0
0 0 0 0 0 0 0 0 0 0 0 0 0 0 0 0 0 0 0 0 0 0 0 0 0 0 0 0 0 0 0 0 0 0 0 0 0 0
0 0 0 0 0 0 0 0 0 0 0 0 0 0 0 0 0 0 0 0 0 0 0 0 0 0 0 0 0 0 0 0 0 0 0 0 0 0
0 0 0 0 0 0 0 0 0 0 0 0 0 0 0 0 0 0 0 0 0 0 0 0 0 0 0 0 0 0 0 0 0 0 0 0 0 0
0 0 0 0 0 0 0 0 0 0 0 0 0 0 0 0 0 0 0 0 0 0 0 0 0 0 0 0 0 0 0 0 0 0 0 0 0 0
0 0 0 0 0 0 0 0 0 0 0 0 0 0 0 0 0 0 0 0 0 0 0 0 0 0 0 0 0 0 0 0 0 0 0 0 0 0
0 0 0 0 0 0 0 0 0 0 0 0 0 0 0 0 0 0 0 0 0 0 0 0 0 0 0 0 0 0 0 0 0 0 0 0 0 0
Wind_Speed
5 5 4 3 3 3 3 3 3 3 4 3 3 2 3 3 7 5 5 13 17 17 18 19 19 19 19 19 20 20 21 21 21 21 22 23 23 23
4 4 4 3 3 3 3 3 4 4 4 3 4 4 4 5 10 6 6 15 16 18 19 19 19 19 19 20 20 20 21 21 21 22 22 23 23 23
4 5 5 4 3 3 3 3 4 4 6 5 3 3 4 6 7 6 6 6 7 16 19 19 19 19 20 20 20 21 21 21 22 22 22 23 23 23
5 5 5 3 4 3 3 4 4 5 5 7 4 3 5 6 6 6 6 6 5 14 18 19 19 19 20 20 20 20 21 21 21 22 22 22 23 23
6 6 5 5 5 4 4 5 4 4 5 5 6 4 4 4 5 6 7 6 7 10 15 17 18 19 20 20 20 20 20 20 21 21 21 22 22 23
5 5 5 6 6 6 5 5 5 4 4 5 6 5 5 4 4 5 6 4 6 7 10 12 15 18 19 20 20 20 20 20 20 20 20 20 20 21
4 4 5 6 8 6 5 4 4 4 4 5 5 5 4 4 4 4 6 6 5 5 5 6 7 7 9 14 17 18 20 20 20 20 20 20 20 20
4 4 4 5 8 9 10 9 7 5 4 4 4 5 6 6 5 5 5 6 5 3 3 6 5 6 6 6 14 19 19 19 19 19 19 19 19 20
4 3 3 4 5 4 7 9 9 11 11 6 6 7 6 6 6 6 6 6 7 4 3 6 4 6 6 8 17 19 18 18 18 19 19 19 20 20
4 4 4 4 4 4 4 4 5 6 8 6 6 7 6 6 6 6 6 6 6 5 4 6 4 5 6 6 14 17 17 17 18 19 19 19 20 20
3 3 3 4 8 8 4 4 5 5 8 11 12 12 13 13 10 4 4 5 6 4 3 4 4 4 4 5 8 14 16 17 18 18 18 19 19 19
2 3 5 6 8 8 3 3 5 5 4 5 7 8 7 9 12 5 3 5 5 5 3 3 3 3 5 3 3 5 7 13 17 18 18 18 18 10
2 2 3 8 8 9 6 3 7 7 2 4 4 5 4 4 4 4 4 4 5 5 3 3 3 2 4 5 4 4 4 5 6 9 13 16 17 12
2 2 3 7 8 8 6 8 10 8 2 3 3 4 4 4 4 5 5 5 6 7 6 4 3 3 4 5 5 4 4 5 5 5 5 11 13 15
2 4 5 6 6 5 7 9 7 3 2 3 4 4 4 4 4 4 4 4 5 5 5 4 5 4 4 5 5 5 5 5 4 4 5 6 6 6
1 3 5 5 4 5 5 5 3 3 3 4 4 4 3 3 3 3 3 3 4 4 4 4 4 5 5 6 6 7 5 5 5 6 6 6 6 5
1 0 1 1 2 2 3 3 3 3 4 3 3 4 4 4 4 3 3 2 3 4 5 4 3 4 6 5 5 6 5 5 5 5 6 7 6 5
2 1 2 2 3 3 3 3 3 3 3 4 3 3 4 4 4 3 3 3 4 4 4 3 3 4 3 4 6 5 4 4 5 6 5 6 7 6
1 2 3 3 3 3 3 3 4 4 3 3 3 3 4 4 4 4 4 4 4 4 4 3 2 2 3 5 6 4 4 5 6 6 5 5 7 8
1 2 3 3 3 3 4 4 4 4 3 3 3 3 3 4 4 4 4 4 4 4 4 3 2 2 3 4 4 5 7 6 5 6 6 5 6 9
2 3 3 3 3 4 4 4 4 4 4 3 3 4 3 3 4 4 4 7 5 3 4 5 5 7 3 2 4 5 5 8 8 6 5 5 5 4
3 3 3 4 4 4 4 4 4 4 4 4 4 4 3 3 4 5 4 4 4 4 5 4 4 3 1 2 4 5 6 7 9 11 9 7 4 4
3 3 4 4 4 3 3 4 5 4 4 4 4 4 4 4 4 4 4 4 4 4 4 4 3 2 2 2 3 4 6 6 5 5 5 9 10 10
Wind_Direction
196 197 201 204 198 200 192 178 188 261 280 267 276 284 271 269 285 285 278 294 302 305 306 304 302 301 301 300 300 298 297 297 295 294 293 291 291 291
192 194 207 204 201 198 201 202 195 205 253 257 249 262 275 283 289 287 279 295 299 301 302 302 301 299 299 299 298 298 297 296 294 293 292 292 291 291
194 199 213 201 203 207 203 206 211 203 246 267 251 261 267 274 286 284 280 277 283 294 298 299 300 300 300 299 299 298 298 298 297 295 293 292 292 291
201 201 217 205 213 212 211 219 222 216 231 268 277 268 262 269 273 280 286 284 273 287 294 297 299 300 299 299 299 299 299 298 297 296 295 294 293 292
200 206 215 205 220 221 221 226 230 235 230 255 277 269 270 273 280 281 279 278 280 285 292 294 297 299 300 300 301 302 302 300 298 296 295 294 294 293
207 211 214 212 222 224 226 230 233 239 241 255 271 276 274 272 273 283 289 274 279 285 286 290 293 298 300 300 301 302 302 300 298 297 295 295 295 294
214 220 224 228 236 236 239 236 228 236 246 257 269 280 278 282 275 270 283 286 277 266 275 283 287 286 290 294 298 298 299 298 297 297 297 297 296 295
218 227 235 242 253 262 269 270 261 253 254 254 264 270 276 272 272 273 280 291 290 256 265 282 277 279 280 274 289 296 298 300 301 302 303 302 300 299
214 224 241 252 266 256 270 277 276 274 271 268 262 263 270 270 276 277 267 267 270 272 268 277 268 274 277 285 295 298 299 302 306 308 305 304 303 301
214 218 230 248 256 258 248 253 259 266 274 275 260 264 265 267 261 269 274 276 269 264 248 270 270 269 281 282 292 296 301 307 309 309 306 305 304 303
229 228 233 240 269 282 270 261 270 272 282 286 288 289 292 295 295 289 287 289 291 279 237 254 272 283 278 272 286 297 304 308 310 310 308 308 305 304
240 249 264 272 280 287 269 259 273 274 275 292 293 295 296 296 300 293 272 279 287 284 250 251 269 296 295 273 274 289 298 303 309 312 311 310 307 306
234 248 260 283 289 292 295 270 281 298 286 280 281 283 285 283 284 279 260 252 268 268 264 263 267 254 263 292 289 276 278 290 301 303 308 311 310 309
232 243 260 286 294 297 297 296 303 313 307 292 287 286 287 285 282 279 272 259 250 258 266 259 259 260 272 283 288 290 291 286 287 292 297 307 310 310
248 275 290 298 301 298 299 304 311 310 296 291 289 285 280 277 282 288 286 285 282 273 271 257 254 265 260 268 281 289 301 296 290 295 301 302 298 300
294 296 305 309 310 305 305 308 305 284 285 277 282 284 288 289 287 288 292 304 303 299 292 276 265 259 264 264 268 281 284 287 300 304 304 299 291 284
253 262 310 300 296 294 293 289 287 295 296 289 287 292 295 297 294 293 285 293 287 292 304 306 294 273 254 253 267 271 280 283 284 299 306 305 297 291
306 255 269 271 274 279 284 285 281 282 281 282 285 287 293 294 294 297 291 287 290 291 294 299 320 331 326 286 239 261 278 281 293 299 296 299 301 302
297 262 267 271 276 279 277 277 278 279 279 279 282 285 289 291 292 293 294 294 292 291 292 295 301 309 313 308 298 261 275 297 304 303 294 290 294 300
251 257 266 269 270 272 274 275 277 280 277 275 275 277 278 285 288 288 289 288 290 293 298 296 282 267 259 278 290 291 292 288 292 299 301 297 285 290
261 259 261 265 268 269 272 272 272 273 272 271 271 271 272 275 279 283 285 292 293 288 293 293 283 298 284 285 293 292 292 297 297 292 296 302 306 310
261 264 267 266 266 265 268 270 271 270 269 265 266 268 267 266 271 275 277 283 280 278 282 287 298 311 283 266 284 291 298 306 310 309 298 287 296 309
260 263 266 266 263 261 262 266 268 268 263 260 263 264 263 265 266 268 271 272 277 283 289 295 304 299 276 267 279 288 296 304 309 317 311 316 313 300